User: anonymous   Login
Location: Eschertshofen
(49.3064°N, 11.5756°E)
Time: 03:03:36
(UTC+00:00)
Language:

Cosmos 1844 Rocket - Orbit

View from above orbital plane
View from above orbital plane
View from above satellite
View from above satellite

Ground track
Ground track

The orbit data is extracted from the following two-line orbital elements,

1 17974U 87041B   20332.93119916 -.00000155 +00000-0 -52722-4 0  9992
2 17974 071.0065 135.6231 0016413 270.0444 252.6587 14.17271590734967
Epoch (UTC): 27 November 2020 22:20:55
Eccentricity: 0.0016413
inclination: 71.0065°
perigee height: 823 km
apogee height: 846 km
right ascension of ascending node: 135.6231°
argument of perigee: 270.0444°
revolutions per day: 14.17271590
mean anomaly at epoch: 252.6587°
orbit number at epoch: 73496

The dashed part of the orbit path shows where the satellite is in the earth's shadow,  

DLR